Location: ?????????
(41.2393°N, 22.9479°E)
Time: 05:01:49
(UTC+00:00)

Cosmos 1513 Rocket - Pass Details

Date: 17 November 2025
Orbit: 939 x 1007 km, 82.9° (Epoch: 09 December)

Event Time Altitude Azimuth Distance (km) Brightness Sun altitude
Rises 16:12:28 0° 180° (S) 3,681 7.7 -12.3°
Reaches altitude 10° 16:14:58 10° 179° (S) 2,745 7.0 -12.8°
Maximum altitude 16:21:16 76° 94° (E) 1,034 4.5 -14.0°
Drops below altitude 10° 16:27:40 10° 11° (N) 2,791 6.7 -15.1°
Sets 16:30:13 0° 10° (N) 3,746 7.3 -15.6°
